Location: Fours
(44.3167°N, 6.7000°E)
Time: 10:10:04
(UTC+00:00)

Lacrosse 5 rocket - Pass Details

Date: 30 November 2020
Orbit: 461 x 634 km, 57.0° (Epoch: 25 January)

Event Time Altitude Azimuth Distance (km) Brightness Sun altitude
Rises 16:47:13 0° 239° (WSW) 2,541 6.8 -9.1°
Reaches altitude 10° 16:49:26 10° 244° (WSW) 1,645 5.4 -9.5°
Maximum altitude 16:53:02 53° 322° (NW) 581 1.5 -10.1°
Enters shadow 16:56:14 12° 39° (NE) 1,484 3.0 -10.6°
